Location: �mondeville
(49.4591°N, 1.3431°W)
Time: 19:52:57
(UTC+00:00)

SL-14 R/B - Pass Details

Date: 22 October 2019
Orbit: 518 x 555 km, 82.4° (Epoch: 14 November)

Event Time Altitude Azimuth Distance (km) Brightness Sun altitude
Rises 05:35:32 0° 179° (S) 2,677 6.9 -10.6°
Reaches altitude 10° 05:37:41 10° 176° (S) 1,784 6.0 -10.3°
Maximum altitude 05:41:33 60° 96° (E) 610 3.9 -9.7°
Drops below altitude 10° 05:45:24 10° 17° (NNE) 1,780 6.1 -9.0°
Sets 05:47:34 0° 14° (NNE) 2,669 6.9 -8.7°
